Location: Poprad
(49.0500°N, 20.3000°E)
Time: 02:18:07
(UTC+02:00)

NOAA 19 - Visible Passes

Search period start: 24 April 2024 00:00
Search period end: 04 May 2024 00:00
Orbit: 838 x 860 km, 99.1° (Epoch: 23 April)

Date Brightness Start Highest point End Pass type
(mag) Time Alt. Az. Time Alt. Az. Time Alt. Az.
24 Apr 5.4 20:35:46 10° SE 20:41:06 58° ENE 20:46:27 10° N visible
24 Apr 7.1 22:17:44 10° SW 22:22:06 24° W 22:26:30 10° NW visible
25 Apr 5.6 20:23:42 10° SE 20:28:53 47° ENE 20:34:05 10° N visible
25 Apr 6.7 22:04:56 10° SSW 22:09:42 30° W 22:14:29 10° NW visible
26 Apr 6.4 21:52:17 10° SSW 21:57:19 38° W 22:02:23 10° NNW visible
27 Apr 6.0 21:39:43 10° S 21:44:58 47° W 21:50:14 10° NNW visible
28 Apr 5.7 21:27:15 10° S 21:32:37 59° WSW 21:38:01 10° NNW visible
29 Apr 5.4 21:14:52 10° S 21:20:19 74° WSW 21:25:47 10° NNW visible
29 Apr 7.7 23:00:05 10° WSW 23:01:54 12° W 23:03:44 10° WNW visible
30 Apr 5.2 21:02:34 10° SSE 21:08:01 90° ENE 21:13:30 10° NNW visible
30 Apr 7.6 22:46:23 10° WSW 22:49:25 15° W 22:52:28 10° NW visible
01 May 5.2 20:50:19 10° SSE 20:55:45 73° ENE 21:01:12 10° NNW visible
01 May 7.4 22:33:11 10° SW 22:36:57 19° W 22:40:45 10° NW visible
02 May 5.4 20:38:09 10° SSE 20:43:30 59° ENE 20:48:51 10° N visible
02 May 7.1 22:20:12 10° SW 22:24:31 24° W 22:28:51 10° NW visible
03 May 5.6 20:26:04 10° SE 20:31:15 48° ENE 20:36:29 10° N visible
03 May 6.8 22:07:24 10° SSW 22:12:06 29° W 22:16:50 10° NW visible
